When you browse on this site, cookies collect data to enhance your experience and personalize the content and advertising you see.
Visit our Privacy Policy to learn more. By continuing to use the site, you agree to this use of cookies and data.
  • In Slovakia
  • List of Countries
  • For 7 days
  • Water Temperature
  • Satellite Maps
  • Weather Map
  • Weather Widgets
  • user-avatar
    Login

    Hourly Weather Escaldes-Engordany

    Today, 25 June, Tuesday

    Time Temperature Precipitation Wind Pressure Humidity
    00:00 +16°C° 0 mm 2 mps 641 mmHg 51%
    01:00 +16°C° 0 mm 2 mps 641 mmHg 51%
    02:00 +16°C° 0 mm 2 mps 641 mmHg 51%
    03:00 +16°C° 0 mm 2 mps 641 mmHg 50%
    04:00 +17°C° 0 mm 2 mps 641 mmHg 50%
    05:00 +18°C° 0 mm 2 mps 642 mmHg 50%
    06:00 +20°C° 0 mm 1 mps 642 mmHg 50%
    07:00 +21°C° 0 mm 2 mps 643 mmHg 45%
    08:00 +24°C° 0 mm 2 mps 644 mmHg 41%
    09:00 +26°C° 0 mm 2 mps 645 mmHg 36%
    10:00 +28°C° 0 mm 2 mps 645 mmHg 33%
    11:00 +29°C° 0 mm 2 mps 646 mmHg 30%
    12:00 +30°C° 0 mm 3 mps 646 mmHg 27%
    13:00 +30°C° 0 mm 2 mps 646 mmHg 28%
    14:00 +30°C° 0 mm 2 mps 646 mmHg 29%
    15:00 +30°C° 0 mm 2 mps 645 mmHg 31%
    16:00 +29°C° 0 mm 2 mps 645 mmHg 37%
    17:00 +28°C° 0 mm 1 mps 645 mmHg 44%
    18:00 +27°C° 0 mm 1 mps 644 mmHg 51%
    19:00 +25°C° 0 mm 1 mps 644 mmHg 54%
    20:00 +22°C° 0 mm 1 mps 644 mmHg 57%
    21:00 +19°C° 0 mm 2 mps 643 mmHg 60%
    22:00 +19°C° 0 mm 2 mps 643 mmHg 57%
    23:00 +19°C° 0 mm 2 mps 643 mmHg 54%

    Tomorrow, 26 June, Wednesday

    Time Temperature Precipitation Wind Pressure Humidity
    00:00 +18°C° 0 mm 2 mps 643 mmHg 51%
    01:00 +18°C° 0 mm 2 mps 643 mmHg 47%
    02:00 +18°C° 0 mm 2 mps 643 mmHg 43%
    03:00 +18°C° 0 mm 2 mps 643 mmHg 40%
    04:00 +19°C° 0 mm 2 mps 644 mmHg 40%
    05:00 +20°C° 0 mm 2 mps 644 mmHg 41%
    06:00 +20°C° 0 mm 2 mps 644 mmHg 41%
    07:00 +24°C° 0 mm 2 mps 645 mmHg 35%
    08:00 +27°C° 0 mm 2 mps 646 mmHg 28%
    09:00 +30°C° 0 mm 3 mps 647 mmHg 22%
    10:00 +31°C° 0 mm 3 mps 647 mmHg 21%
    11:00 +32°C° 0 mm 4 mps 648 mmHg 20%
    12:00 +33°C° 0 mm 4 mps 648 mmHg 19%
    13:00 +33°C° 0 mm 4 mps 648 mmHg 20%
    14:00 +33°C° 0 mm 4 mps 647 mmHg 20%
    15:00 +33°C° 0 mm 3 mps 647 mmHg 21%
    16:00 +30°C° 0 mm 3 mps 647 mmHg 28%
    17:00 +29°C° 0 mm 2 mps 646 mmHg 35%
    18:00 +27°C° 0 mm 2 mps 645 mmHg 41%
    19:00 +25°C° 0 mm 2 mps 645 mmHg 42%
    20:00 +23°C° 0 mm 2 mps 645 mmHg 42%
    21:00 +20°C° 0 mm 2 mps 644 mmHg 43%
    22:00 +20°C° 0 mm 2 mps 644 mmHg 39%
    23:00 +20°C° 0 mm 2 mps 644 mmHg 36%

    Day after tomorrow, 27 June, Thursday

    Time Temperature Precipitation Wind Pressure Humidity
    00:00 +20°C° 0 mm 2 mps 644 mmHg 32%
    01:00 +20°C° 0 mm 2 mps 644 mmHg 31%
    02:00 +20°C° 0 mm 2 mps 644 mmHg 29%
    03:00 +20°C° 0 mm 2 mps 644 mmHg 27%
    04:00 +21°C° 0 mm 2 mps 644 mmHg 30%
    05:00 +21°C° 0 mm 2 mps 645 mmHg 33%
    06:00 +23°C° 0 mm 1 mps 645 mmHg 36%
    07:00 +26°C° 0 mm 1 mps 646 mmHg 31%
    08:00 +29°C° 0 mm 1 mps 647 mmHg 26%
    09:00 +32°C° 0 mm 1 mps 648 mmHg 21%
    10:00 +33°C° 0 mm 1 mps 648 mmHg 19%
    11:00 +33°C° 0 mm 1 mps 648 mmHg 18%
    12:00 +35°C° 0 mm 2 mps 648 mmHg 16%
    13:00 +35°C° 0 mm 2 mps 648 mmHg 17%
    14:00 +35°C° 0 mm 2 mps 648 mmHg 18%
    15:00 +34°C° 0 mm 1 mps 647 mmHg 19%
    16:00 +32°C° 0 mm 1 mps 646 mmHg 26%
    17:00 +30°C° 0 mm 1 mps 646 mmHg 33%
    18:00 +29°C° 0 mm 1 mps 645 mmHg 40%
    19:00 +27°C° 0 mm 1 mps 645 mmHg 39%
    20:00 +25°C° 0 mm 1 mps 644 mmHg 38%
    21:00 +23°C° 0 mm 1 mps 644 mmHg 37%
    22:00 +23°C° 0 mm 1 mps 644 mmHg 36%
    23:00 +21°C° 0 mm 2 mps 643 mmHg 34%

    28 June, Friday

    Time Temperature Precipitation Wind Pressure Humidity
    00:00 +21°C° 0 mm 2 mps 643 mmHg 33%
    01:00 +21°C° 0 mm 2 mps 643 mmHg 31%
    02:00 +21°C° 0 mm 2 mps 643 mmHg 29%
    03:00 +20°C° 0 mm 2 mps 642 mmHg 27%
    04:00 +21°C° 0 mm 2 mps 643 mmHg 29%
    05:00 +21°C° 0 mm 2 mps 643 mmHg 32%
    06:00 +23°C° 0 mm 2 mps 643 mmHg 35%
    07:00 +26°C° 0 mm 2 mps 644 mmHg 29%
    08:00 +29°C° 0 mm 1 mps 645 mmHg 23%
    09:00 +32°C° 0 mm 1 mps 646 mmHg 18%
    10:00 +33°C° 0 mm 1 mps 646 mmHg 17%
    11:00 +34°C° 0 mm 2 mps 646 mmHg 16%
    12:00 +35°C° 0 mm 2 mps 646 mmHg 15%
    13:00 +35°C° 0 mm 2 mps 645 mmHg 16%
    14:00 +35°C° 0 mm 2 mps 645 mmHg 16%
    15:00 +34°C° 0 mm 2 mps 645 mmHg 17%
    16:00 +32°C° 0 mm 2 mps 644 mmHg 25%
    17:00 +30°C° 0 mm 2 mps 643 mmHg 33%
    18:00 +28°C° 0 mm 2 mps 643 mmHg 41%
    19:00 +26°C° 0 mm 2 mps 642 mmHg 39%
    20:00 +24°C° 0 mm 2 mps 642 mmHg 37%
    21:00 +21°C° 0 mm 2 mps 642 mmHg 35%
    22:00 +21°C° 0 mm 2 mps 642 mmHg 35%
    23:00 +21°C° 0 mm 2 mps 641 mmHg 34%

    29 June, Saturday

    Time Temperature Precipitation Wind Pressure Humidity
    00:00 +21°C° 0 mm 2 mps 641 mmHg 34%
    01:00 +21°C° 0 mm 2 mps 641 mmHg 35%
    02:00 +20°C° 0 mm 2 mps 641 mmHg 36%
    03:00 +20°C° 0 mm 2 mps 641 mmHg 37%
    04:00 +21°C° 0 mm 2 mps 641 mmHg 39%
    05:00 +23°C° 0 mm 1 mps 641 mmHg 41%
    06:00 +24°C° 0 mm 1 mps 642 mmHg 42%
    07:00 +26°C° 0 mm 1 mps 643 mmHg 35%
    08:00 +29°C° 0 mm 1 mps 644 mmHg 28%
    09:00 +32°C° 0 mm 1 mps 645 mmHg 21%
    10:00 +32°C° 0 mm 1 mps 645 mmHg 20%
    11:00 +33°C° 0 mm 1 mps 645 mmHg 20%
    12:00 +35°C° 0 mm 2 mps 645 mmHg 19%
    13:00 +34°C° 0 mm 2 mps 645 mmHg 21%
    14:00 +32°C° 0 mm 2 mps 644 mmHg 23%
    15:00 +32°C° 0 mm 2 mps 644 mmHg 25%
    16:00 +30°C° 0 mm 2 mps 644 mmHg 34%
    17:00 +29°C° 0 mm 2 mps 643 mmHg 43%
    18:00 +28°C° 0 mm 1 mps 643 mmHg 52%
    19:00 +25°C° 0 mm 1 mps 643 mmHg 55%
    20:00 +23°C° 0 mm 1 mps 642 mmHg 58%
    21:00 +21°C° 0 mm 1 mps 642 mmHg 61%
    22:00 +21°C° 0 mm 1 mps 642 mmHg 56%
    23:00 +20°C° 0 mm 1 mps 642 mmHg 50%

    30 June, Sunday

    Time Temperature Precipitation Wind Pressure Humidity
    00:00 +20°C° 0 mm 1 mps 642 mmHg 44%
    01:00 +20°C° 0 mm 1 mps 642 mmHg 44%
    02:00 +20°C° 0 mm 1 mps 642 mmHg 44%
    03:00 +19°C° 0 mm 1 mps 642 mmHg 44%
    04:00 +20°C° 0 mm 1 mps 642 mmHg 46%
    05:00 +21°C° 0 mm 1 mps 643 mmHg 49%
    06:00 +22°C° 0 mm 1 mps 643 mmHg 51%
    07:00 +25°C° 0 mm 1 mps 644 mmHg 43%
    08:00 +27°C° 0 mm 1 mps 645 mmHg 36%
    09:00 +30°C° 0 mm 1 mps 646 mmHg 28%
    10:00 +31°C° 0 mm 1 mps 646 mmHg 25%
    11:00 +32°C° 0 mm 1 mps 646 mmHg 23%
    12:00 +34°C° 0 mm 2 mps 646 mmHg 20%
    13:00 +34°C° 0 mm 2 mps 646 mmHg 21%
    14:00 +32°C° 0 mm 2 mps 646 mmHg 21%
    15:00 +33°C° 0 mm 3 mps 645 mmHg 22%
    16:00 +31°C° 0 mm 2 mps 645 mmHg 31%
    17:00 +29°C° 0 mm 1 mps 644 mmHg 41%
    18:00 +27°C° 0 mm 1 mps 644 mmHg 50%
    19:00 +25°C° 0 mm 1 mps 643 mmHg 56%
    20:00 +23°C° 0 mm 1 mps 643 mmHg 62%
    21:00 +21°C° 0 mm 1 mps 643 mmHg 67%
    22:00 +20°C° 0 mm 1 mps 642 mmHg 65%
    23:00 +20°C° 0 mm 1 mps 642 mmHg 63%
    Show more